Search the data

BODC Cruise Metadata Report for FRV Scotia (749S) cruise 1389S_2

Introduction

This report collates information from the BODC cruise inventory and oceanographic databases. It presents

Cruise Inventory Information

Long name FRV Scotia (749S) cruise 1389S_2
Short name 1389S_2
Objectives and Narrative The objectives of this cruise and their outcomes were:
(1) To work hydrographic (CTD and nutrients) stations east of the Shetland Isles as a preliminary investigation of the inflow of Atlantic water to the northern North Sea. Accomplished 5 sections plus stations to the west of the Shetlands and in the Orkney-Shetland Gap.
2. To work hydrographic stations east of the Orkney Islands (JONSIS line) and east of the Scottish mainland. Accomplished three sections.
3. To collect caesium samples as required. Accomplished.
Ship FRV Scotia
Departure Port Aberdeen, United Kingdom
Departure Date 1989-12-12
Arrival Port
Arrival Date 1989-12-20
Principal Scientist(s) Bill Turrell (Scottish Office Agriculture and Fisheries Department Aberdeen Marine Laboratory)
Responsible Organisation
Associated Project(s)
IHB Sea Areas Visited North Sea, North East Atlantic Ocean (limit 40W)
Marsden Squares Visited 181;3/216;3/217;1/252;1
Work Area Description Shetland Isles/ Orkney Islands
Work Area Bounding Polygon 55N,5W; 65N,5W; 65N,5E; 55N,5E; 55N,5W
Southern Limit 55N
Northern Limit 65N
Western Limit 5W
Eastern Limit 5E

Cruise Inventory Datasets

Physical oceanography  
CTD stations Quantity: number of profiles = 83
Description:  
Surface measurements underway (T,S) Description: Duration of cruise  
Water bottle stations Quantity: number of profiles = 8
Description: Knudsen bottle samples.  
Chemical oceanography  
Nitrate Quantity: number of stations = 83
Description:  
Phosphate Quantity: number of stations = 83
Description:  
Radioactivity Description:  
Silicate Quantity: number of stations = 83
Description:  

Cruise Inventory Mooring/Buoy Operations

No information on datasets is currently available

Summary of BODC Data Holdings for the Cruise

National Oceanographic Database

Summary

# Series Instrument Description Parameters
83 CTD/STD cast Density of the water column
Electrical conductivity of the water column
Salinity of the water column
Temperature of the water column
Vertical spatial coordinates

Note: Parameter terms are taken from the BODC Parameter Discovery Vocabulary XML (SKOS)

Full List

BODC Reference Instrument Description Date/Time Location  
408485 CTD/STD cast 1989-12-12 16:51Z 57° 30' N, 0° 40' W Click for more
408497 CTD/STD cast 1989-12-12 18:05Z 57° 40' N, 0° 40' W Click for more
408504 CTD/STD cast 1989-12-12 19:18Z 57° 49' N, 0° 40' W Click for more
408516 CTD/STD cast 1989-12-12 20:35Z 58° 0' N, 0° 39' W Click for more
408528 CTD/STD cast 1989-12-12 21:56Z 58° 9' N, 0° 40' W Click for more
408541 CTD/STD cast 1989-12-13 08:13Z 59° 25' N, 2° 9' W Click for more
408553 CTD/STD cast 1989-12-13 09:10Z 59° 30' N, 2° 0' W Click for more
408565 CTD/STD cast 1989-12-13 10:08Z 59° 34' N, 1° 49' W Click for more
408577 CTD/STD cast 1989-12-13 11:24Z 59° 40' N, 1° 39' W Click for more
408589 CTD/STD cast 1989-12-13 12:29Z 59° 45' N, 1° 30' W Click for more
408590 CTD/STD cast 1989-12-13 13:35Z 59° 49' N, 1° 22' W Click for more
408608 CTD/STD cast 1989-12-13 14:52Z 59° 55' N, 1° 13' W Click for more
408621 CTD/STD cast 1989-12-13 15:45Z 59° 55' N, 1° 0' W Click for more
408633 CTD/STD cast 1989-12-13 16:34Z 59° 55' N, 0° 50' W Click for more
408645 CTD/STD cast 1989-12-13 17:24Z 59° 55' N, 0° 40' W Click for more
408657 CTD/STD cast 1989-12-13 18:30Z 59° 55' N, 0° 19' W Click for more
408669 CTD/STD cast 1989-12-13 19:39Z 59° 55' N, 0° 0' E Click for more
408670 CTD/STD cast 1989-12-13 21:07Z 59° 55' N, 0° 19' E Click for more
408682 CTD/STD cast 1989-12-13 22:11Z 59° 55' N, 0° 40' E Click for more
408694 CTD/STD cast 1989-12-13 23:25Z 59° 55' N, 1° 0' E Click for more
408701 CTD/STD cast 1989-12-14 02:45Z 60° 25' N, 1° 0' E Click for more
408713 CTD/STD cast 1989-12-14 03:58Z 60° 25' N, 0° 39' E Click for more
408725 CTD/STD cast 1989-12-14 05:06Z 60° 25' N, 0° 19' E Click for more
408737 CTD/STD cast 1989-12-14 06:10Z 60° 13' N, 0° 0' W Click for more
408749 CTD/STD cast 1989-12-14 07:20Z 60° 25' N, 0° 19' W Click for more
408750 CTD/STD cast 1989-12-14 08:26Z 60° 25' N, 0° 40' W Click for more
408762 CTD/STD cast 1989-12-14 11:04Z 60° 49' N, 0° 43' W Click for more
408774 CTD/STD cast 1989-12-14 11:27Z 60° 49' N, 0° 40' W Click for more
408786 CTD/STD cast 1989-12-14 12:18Z 60° 49' N, 0° 30' W Click for more
408798 CTD/STD cast 1989-12-14 13:00Z 60° 49' N, 0° 19' W Click for more
408805 CTD/STD cast 1989-12-14 14:09Z 60° 49' N, 0° 0' E Click for more
408817 CTD/STD cast 1989-12-14 15:20Z 60° 49' N, 0° 19' E Click for more
408829 CTD/STD cast 1989-12-15 00:16Z 60° 49' N, 1° 0' E Click for more
408830 CTD/STD cast 1989-12-15 01:30Z 61° 0' N, 1° 0' E Click for more
408842 CTD/STD cast 1989-12-15 02:37Z 61° 9' N, 0° 57' E Click for more
408854 CTD/STD cast 1989-12-15 04:21Z 61° 19' N, 1° 0' E Click for more
408866 CTD/STD cast 1989-12-15 05:36Z 61° 30' N, 1° 0' E Click for more
408878 CTD/STD cast 1989-12-15 07:07Z 61° 40' N, 1° 0' E Click for more
408891 CTD/STD cast 1989-12-15 08:18Z 61° 49' N, 1° 0' E Click for more
408909 CTD/STD cast 1989-12-15 13:18Z 61° 40' N, 0° 49' W Click for more
408910 CTD/STD cast 1989-12-15 14:31Z 61° 30' N, 0° 49' W Click for more
408922 CTD/STD cast 1989-12-15 15:39Z 61° 19' N, 0° 49' W Click for more
408934 CTD/STD cast 1989-12-15 16:47Z 61° 10' N, 0° 49' W Click for more
408946 CTD/STD cast 1989-12-15 17:57Z 61° 0' N, 0° 50' W Click for more
408958 CTD/STD cast 1989-12-15 18:56Z 60° 52' N, 0° 50' W Click for more
408971 CTD/STD cast 1989-12-15 20:18Z 60° 45' N, 1° 10' W Click for more
408983 CTD/STD cast 1989-12-15 21:12Z 60° 50' N, 1° 20' W Click for more
408995 CTD/STD cast 1989-12-15 23:02Z 60° 55' N, 1° 30' W Click for more
409009 CTD/STD cast 1989-12-16 00:02Z 61° 0' N, 1° 40' W Click for more
409010 CTD/STD cast 1989-12-16 00:57Z 61° 4' N, 1° 49' W Click for more
409022 CTD/STD cast 1989-12-16 04:50Z 60° 40' N, 3° 0' W Click for more
409034 CTD/STD cast 1989-12-16 06:30Z 60° 30' N, 2° 40' W Click for more
409046 CTD/STD cast 1989-12-16 07:59Z 60° 19' N, 2° 19' W Click for more
409058 CTD/STD cast 1989-12-16 09:31Z 60° 10' N, 2° 0' W Click for more
409071 CTD/STD cast 1989-12-16 10:59Z 60° 0' N, 1° 40' W Click for more
409083 CTD/STD cast 1989-12-16 12:10Z 59° 49' N, 1° 39' W Click for more
409095 CTD/STD cast 1989-12-16 13:39Z 59° 49' N, 2° 0' W Click for more
409102 CTD/STD cast 1989-12-16 14:43Z 59° 49' N, 2° 20' W Click for more
409114 CTD/STD cast 1989-12-16 15:44Z 59° 49' N, 2° 40' W Click for more
409126 CTD/STD cast 1989-12-16 16:44Z 59° 49' N, 3° 0' W Click for more
409138 CTD/STD cast 1989-12-17 19:40Z 59° 10' N, 3° 20' W Click for more
409151 CTD/STD cast 1989-12-17 20:25Z 59° 12' N, 3° 30' W Click for more
409163 CTD/STD cast 1989-12-17 21:17Z 59° 15' N, 3° 40' W Click for more
409175 CTD/STD cast 1989-12-18 20:06Z 59° 16' N, 2° 13' W Click for more
409187 CTD/STD cast 1989-12-18 21:06Z 59° 16' N, 2° 5' W Click for more
409199 CTD/STD cast 1989-12-18 22:03Z 59° 16' N, 1° 55' W Click for more
409206 CTD/STD cast 1989-12-18 23:06Z 59° 16' N, 1° 48' W Click for more
409218 CTD/STD cast 1989-12-18 23:57Z 59° 16' N, 1° 40' W Click for more
409231 CTD/STD cast 1989-12-19 00:47Z 59° 16' N, 1° 30' W Click for more
409243 CTD/STD cast 1989-12-19 01:40Z 59° 16' N, 1° 19' W Click for more
409255 CTD/STD cast 1989-12-19 02:35Z 59° 16' N, 1° 9' W Click for more
409267 CTD/STD cast 1989-12-19 03:30Z 59° 16' N, 1° 0' W Click for more
409279 CTD/STD cast 1989-12-19 05:00Z 59° 16' N, 0° 40' W Click for more
409280 CTD/STD cast 1989-12-19 06:34Z 59° 16' N, 0° 19' W Click for more
409292 CTD/STD cast 1989-12-19 08:15Z 59° 16' N, 0° 0' W Click for more
409311 CTD/STD cast 1989-12-19 14:24Z 58° 27' N, 0° 0' W Click for more
409323 CTD/STD cast 1989-12-19 15:50Z 58° 22' N, 0° 15' W Click for more
409335 CTD/STD cast 1989-12-19 16:58Z 58° 18' N, 0° 30' W Click for more
409347 CTD/STD cast 1989-12-19 17:59Z 58° 13' N, 0° 45' W Click for more
409359 CTD/STD cast 1989-12-19 18:59Z 58° 7' N, 1° 0' W Click for more
409360 CTD/STD cast 1989-12-19 20:02Z 58° 3' N, 1° 15' W Click for more
409372 CTD/STD cast 1989-12-19 21:08Z 57° 58' N, 1° 30' W Click for more
409384 CTD/STD cast 1989-12-19 22:11Z 57° 52' N, 1° 45' W Click for more

Project Database

No data currently held for this cruise in the BODC Project Database

References

Track Charts

Track Chart

Track Chart

Reports

Cruise Report